GFSNE_sfc_temp_036.txt.gz
Temp
40 39 39 38 38 37 36 35 32 27 27 30 31 34 35 35 38 40 37 43 47 47 48 48 48 49 50 50 51 52 51 51 52 52 52 53 53 54
39 38 38 37 36 35 35 34 32 30 26 29 30 31 34 39 38 39 37 43 43 45 46 46 47 47 48 49 49 50 50 50 50 51 52 52 52 53
38 38 38 38 36 36 34 33 31 29 26 29 30 32 30 31 34 34 35 36 36 43 44 45 46 46 47 47 48 48 49 49 49 49 50 51 51 51
38 38 38 43 37 36 34 32 30 30 27 27 28 28 28 31 30 30 35 38 36 40 43 44 45 45 45 46 46 47 47 47 47 48 49 49 50 51
40 40 41 39 37 35 32 31 30 34 29 27 28 28 28 29 30 31 31 32 36 40 42 43 43 44 44 44 45 46 45 45 45 45 46 47 48 48
40 39 39 38 36 35 34 32 33 30 28 27 27 25 24 29 29 28 29 32 32 36 38 40 41 42 43 43 43 42 42 43 43 44 44 45 45 46
38 39 39 39 41 41 37 32 31 29 28 23 25 22 25 28 28 29 28 29 31 32 32 32 31 31 33 38 38 39 40 41 43 44 44 45 44 45
36 36 35 38 38 43 44 44 41 28 21 20 20 26 27 28 29 28 27 25 24 32 26 31 33 31 32 33 37 39 41 42 42 43 43 43 44 44
32 32 33 37 35 31 36 41 40 41 41 36 30 28 27 28 28 25 26 26 27 30 29 26 31 29 32 34 38 39 40 41 41 42 42 43 43 44
30 29 29 29 30 34 32 28 30 31 32 32 29 30 30 32 31 30 30 28 29 30 30 23 29 27 31 32 37 38 39 39 40 41 42 43 43 43
31 30 31 30 37 40 33 28 28 29 36 39 40 40 40 40 38 32 25 24 22 25 29 26 25 25 27 28 31 36 38 39 40 40 41 41 41 41
29 30 35 35 39 40 34 30 27 28 29 29 28 30 33 30 36 30 25 22 21 21 25 20 24 24 22 23 27 26 29 35 37 38 38 39 40 37
29 28 29 36 38 39 39 29 30 34 31 26 27 27 28 27 28 28 27 25 23 22 28 28 24 23 23 22 24 27 28 29 29 31 35 36 37 37
28 28 28 36 38 37 34 35 36 35 27 26 25 24 24 24 25 26 27 26 26 25 27 26 22 21 21 20 21 26 27 27 27 27 27 32 36 38
30 33 36 36 34 31 33 34 33 25 25 23 22 23 23 24 24 25 25 25 23 24 26 25 24 24 23 21 21 23 24 26 27 27 27 27 27 29
32 27 32 31 31 30 28 27 26 26 25 23 22 23 24 23 23 23 22 22 21 22 26 26 24 23 22 23 23 23 25 23 26 27 27 28 30 32
29 26 24 23 22 23 24 25 25 25 23 22 21 21 22 22 22 22 22 21 19 20 21 24 25 25 25 24 22 24 24 25 27 27 27 27 30 31
25 21 20 20 20 21 21 21 22 22 21 21 21 21 20 20 20 21 23 20 19 20 20 22 22 22 24 28 30 24 25 26 28 30 30 28 29 32
21 18 18 19 19 20 19 19 18 20 20 20 20 20 20 20 22 19 19 20 20 20 21 22 22 23 21 20 30 38 29 30 30 30 30 29 28 30
18 18 17 18 19 18 18 18 18 19 19 19 20 21 20 19 19 19 20 20 20 21 23 25 24 24 23 23 25 30 36 30 29 28 28 31 33 37
18 18 19 19 18 18 18 18 18 18 21 20 18 19 20 20 19 20 20 25 26 23 22 24 27 34 30 29 26 28 32 36 35 30 30 29 28 30
18 18 19 19 18 17 17 17 17 18 18 18 19 20 20 21 20 20 22 22 24 25 25 27 29 30 28 27 25 26 28 32 35 37 36 34 30 27
17 19 18 18 17 17 18 18 18 18 18 18 19 20 22 22 23 24 24 25 25 27 28 26 28 29 28 27 28 26 27 28 30 30 33 38 38 38

GFSNE_sfc_temp_039.txt.gz
Temp
43 42 42 41 41 39 36 35 33 28 28 31 33 34 34 34 37 37 35 42 45 46 47 47 47 48 49 50 50 51 52 52 53 52 53 53 53 54
43 42 41 40 39 37 34 34 33 31 27 30 31 31 33 38 37 37 36 42 43 44 45 45 46 47 48 48 49 50 50 51 52 51 51 52 53 54
40 40 41 40 38 36 33 33 32 30 27 29 30 31 29 30 33 32 34 33 34 42 43 44 45 46 47 47 48 48 49 49 49 50 50 52 51 52
38 37 40 42 37 37 37 36 35 31 28 26 27 28 29 30 30 29 34 37 35 39 42 43 44 45 45 46 46 47 47 47 48 48 48 49 49 51
40 41 40 39 38 37 36 34 32 34 30 28 28 28 28 28 27 28 29 30 34 39 41 42 42 43 44 44 45 45 45 45 46 46 46 47 48 49
39 38 37 36 36 36 35 35 35 32 28 27 28 26 24 27 26 27 28 30 30 35 37 39 40 41 42 43 43 42 42 43 43 44 45 45 45 46
34 34 36 38 40 41 38 34 30 29 28 24 24 22 22 25 27 29 27 29 29 30 30 31 30 31 32 37 38 40 40 41 42 43 44 45 44 45
32 35 36 38 37 41 42 42 40 29 23 19 18 24 25 25 26 27 26 24 24 28 26 30 31 30 32 32 37 39 40 41 42 43 43 44 43 43
34 33 33 37 34 32 36 40 38 40 40 33 28 27 27 29 28 25 26 26 25 29 29 26 30 28 31 33 38 39 40 41 41 42 42 43 43 43
32 31 29 30 31 34 32 29 30 30 31 32 29 30 29 30 31 30 30 28 28 29 29 22 28 27 30 31 36 38 39 40 40 41 42 42 43 43
31 30 31 30 36 39 32 27 28 29 36 39 39 39 39 39 38 32 25 23 22 25 29 25 24 24 27 28 31 36 38 39 40 41 41 41 41 42
29 30 35 34 38 39 32 29 25 26 28 27 27 29 32 29 35 29 24 20 21 21 24 17 22 24 21 23 26 26 29 34 37 38 38 39 40 37
29 28 29 36 38 39 38 27 29 33 30 25 26 26 27 26 27 27 27 23 22 22 28 27 23 23 23 21 23 25 27 28 29 30 35 36 37 36
28 28 28 36 37 36 34 35 35 34 26 25 24 23 23 23 24 25 26 25 26 24 26 26 22 20 20 19 19 25 26 27 27 26 27 31 34 36
31 33 35 35 34 30 32 33 32 24 24 22 21 22 22 23 23 23 23 24 23 23 25 25 23 23 22 20 20 22 23 25 26 25 26 26 26 27
30 25 30 30 30 29 27 27 25 25 24 23 21 22 23 21 21 22 20 21 21 21 25 25 23 22 21 21 22 21 23 21 25 27 27 28 29 29
28 24 22 22 21 22 22 23 24 24 22 21 20 21 21 21 20 21 20 20 18 19 20 23 24 24 24 23 21 22 23 24 25 26 26 26 28 29
24 20 19 19 19 19 20 20 21 21 20 20 20 19 19 18 19 21 22 20 17 19 19 21 22 22 24 27 29 22 24 24 26 28 28 26 27 32
20 17 17 17 18 19 18 18 17 19 18 17 17 17 18 19 21 19 20 19 19 20 21 23 22 22 20 19 28 36 27 29 29 29 30 29 28 30
17 16 16 17 18 17 17 17 17 17 17 17 17 19 19 18 18 19 20 20 20 22 24 25 25 24 22 22 24 29 35 29 29 28 28 31 32 36
17 17 18 18 17 18 18 17 16 16 19 19 16 17 18 20 20 21 21 25 26 23 22 24 28 34 30 29 25 27 32 36 34 29 29 28 28 29
17 17 18 18 18 17 17 16 16 16 16 16 17 18 20 21 21 21 22 22 23 24 24 27 30 30 27 25 24 25 28 31 35 36 37 34 29 26
17 17 18 18 18 17 17 17 17 16 16 17 17 19 21 21 23 23 23 24 24 26 27 27 28 29 28 27 27 26 26 28 30 30 32 38 38 38

GFSNE_sfc_temp_042.txt.gz
Temp
44 43 41 40 42 41 40 40 39 30 33 34 33 36 35 34 37 37 35 41 45 46 47 47 47 48 48 49 50 51 52 52 53 53 53 53 55 54
43 42 41 40 39 39 38 38 37 34 30 32 33 36 36 38 37 37 35 42 43 44 45 45 46 46 47 48 49 50 50 51 51 52 53 53 53 53
41 41 39 39 37 37 36 36 35 34 32 34 31 31 30 31 33 32 33 31 32 41 43 44 44 45 46 47 48 48 49 49 49 50 51 51 52 52
38 37 37 39 36 36 36 35 35 35 32 31 28 28 29 31 31 29 34 37 34 39 42 43 44 44 45 45 46 47 47 47 48 48 48 49 50 50
38 38 37 37 35 33 32 32 34 36 32 27 27 28 28 28 27 28 28 29 33 38 41 41 42 42 43 44 45 46 46 46 46 46 47 47 48 49
38 37 36 35 34 33 33 33 35 32 31 29 28 27 25 28 25 26 27 28 30 34 37 38 40 41 42 43 43 42 42 43 44 44 45 45 46 47
35 34 33 33 35 36 36 35 34 32 28 24 23 23 24 25 26 29 27 28 28 29 30 30 29 30 32 37 38 39 40 41 42 43 44 45 45 45
32 32 33 34 35 38 40 42 39 30 28 23 22 24 25 26 25 26 26 25 25 28 25 29 30 30 32 32 37 39 40 41 42 43 44 44 44 44
31 33 34 36 33 33 36 39 38 40 40 31 27 26 27 27 27 25 25 26 25 29 27 26 30 28 31 33 37 39 40 41 41 42 42 43 44 44
33 32 30 29 30 33 32 29 31 30 31 31 29 29 28 29 28 29 29 28 28 29 28 22 28 27 30 31 36 38 39 40 41 41 42 43 43 43
31 30 30 29 35 39 32 26 29 29 35 38 38 38 38 38 37 30 23 23 22 24 28 24 24 23 27 28 31 36 38 40 40 41 41 41 41 42
28 30 35 33 38 39 32 29 25 26 27 26 27 28 30 28 34 28 22 19 20 20 23 20 19 24 20 23 23 26 30 34 36 37 38 39 39 37
29 28 29 36 38 38 38 27 28 31 28 24 24 25 25 25 26 27 26 20 21 21 27 27 22 23 22 21 23 25 26 28 28 30 34 35 36 36
29 28 28 35 36 36 33 34 35 32 24 23 23 22 22 23 23 24 25 24 24 24 25 25 21 19 20 19 19 24 25 26 26 26 27 31 34 36
31 32 34 34 33 29 31 33 31 23 23 21 20 21 21 21 22 21 22 22 20 22 25 24 22 22 21 19 19 21 22 25 26 25 25 26 26 27
30 24 30 29 29 28 26 25 24 24 23 21 20 21 22 16 20 20 19 20 19 20 24 24 23 22 20 21 21 20 22 20 25 25 25 26 28 29
27 23 21 20 20 20 21 22 23 23 21 20 19 19 19 20 19 20 19 19 17 18 20 23 24 24 23 22 20 22 22 22 24 25 25 25 27 29
23 19 17 17 17 18 19 19 20 20 19 19 18 17 17 17 17 20 21 19 17 18 19 21 21 21 23 27 29 22 23 24 26 28 28 26 27 31
18 15 15 16 17 18 17 17 16 18 16 15 15 15 17 17 21 19 19 19 19 20 21 22 22 23 20 19 29 36 27 28 28 28 29 28 27 30
16 15 15 17 17 17 17 16 16 16 15 15 15 16 18 18 18 20 21 20 20 21 23 25 23 24 23 23 25 29 34 28 28 27 28 30 32 36
16 16 17 17 17 17 17 16 15 15 17 18 15 14 16 18 19 21 21 26 26 24 22 23 26 34 30 29 25 27 32 36 34 29 29 28 28 29
16 16 17 17 18 17 16 15 14 14 14 14 15 16 17 19 20 21 22 22 23 24 24 26 28 30 29 26 25 26 28 31 35 36 37 34 29 26
16 16 17 16 17 17 16 15 15 15 16 17 17 17 18 19 23 24 24 25 24 24 25 28 29 30 29 28 28 27 26 28 30 29 32 38 38 38

GFSNE_sfc_temp_045.txt.gz
Temp
48 46 45 42 42 42 42 44 46 37 38 39 40 45 45 45 44 48 47 44 46 47 47 47 47 48 48 49 50 51 51 52 53 54 54 55 55 55
46 44 43 42 41 41 39 39 39 41 39 39 39 41 42 42 43 45 45 43 45 45 46 46 46 46 47 48 48 49 50 51 52 52 53 54 54 54
43 42 40 41 38 37 37 37 35 35 33 35 34 34 34 37 40 43 43 43 44 43 44 45 45 45 46 47 47 48 49 50 51 51 52 52 52 53
41 39 37 39 36 36 36 35 34 33 33 32 34 33 34 38 40 41 41 42 43 42 43 44 44 44 45 45 46 47 47 47 48 48 49 49 50 51
39 38 38 38 35 35 34 33 33 35 33 32 32 34 36 38 38 39 39 40 40 40 41 42 42 43 43 44 45 46 46 46 46 47 47 48 49 49
38 38 37 36 35 33 33 34 35 34 33 33 33 34 35 37 35 35 36 39 38 40 40 40 41 42 42 43 43 43 42 43 43 44 45 46 46 47
35 35 33 34 34 34 35 35 34 34 34 33 33 34 34 35 35 37 35 36 37 38 37 39 39 39 40 40 40 40 40 41 42 43 44 45 45 45
32 33 33 34 35 36 36 38 39 35 34 33 33 33 34 35 35 34 33 31 28 40 36 36 39 37 39 40 40 40 41 42 42 43 44 44 44 45
32 32 33 35 33 32 36 39 39 40 40 38 34 34 34 35 33 31 31 31 30 35 36 32 37 35 39 40 39 39 40 41 41 42 43 43 44 44
34 33 33 34 34 37 37 35 36 36 37 37 37 37 37 37 35 32 32 33 34 36 36 27 35 34 38 38 38 39 39 40 41 42 42 43 43 43
33 33 34 34 36 38 37 33 34 35 37 38 38 38 38 38 38 35 30 28 26 30 35 30 32 32 33 35 37 38 39 40 40 40 40 41 41 42
34 35 35 36 38 39 37 34 31 33 34 33 34 34 34 34 34 34 31 25 24 25 34 28 30 29 26 35 35 36 36 37 37 38 38 39 39 38
33 33 34 36 37 37 37 33 33 36 32 31 32 32 32 32 32 33 31 27 23 24 32 29 27 27 25 26 31 33 34 34 35 35 36 36 36 36
33 34 34 35 35 35 34 34 35 34 31 30 29 28 28 28 29 29 29 28 29 26 29 28 24 24 23 23 24 31 32 33 33 32 32 34 35 36
34 34 33 33 32 30 31 32 31 29 28 26 26 26 27 27 26 26 27 27 25 26 27 26 25 25 24 23 23 25 26 30 31 30 31 31 31 32
31 31 31 30 28 29 28 28 29 29 28 27 25 26 27 26 25 27 24 25 23 25 29 27 26 25 24 25 25 23 27 24 30 31 31 31 32 32
29 28 26 25 25 25 26 26 27 27 25 25 24 23 24 24 24 26 24 23 22 23 25 29 30 29 27 25 22 26 27 28 30 29 29 28 31 33
26 23 23 23 23 23 23 24 25 24 24 23 22 22 21 21 22 24 26 24 22 24 24 27 27 26 28 30 30 25 27 28 31 32 31 27 28 33
23 22 21 22 22 22 22 22 21 23 21 20 20 20 20 20 22 23 24 24 24 25 26 27 26 25 23 22 32 37 30 31 32 31 32 31 29 32
22 21 21 21 22 21 21 21 21 21 21 20 20 19 19 21 20 21 23 23 24 26 27 29 28 27 25 24 25 31 35 31 30 30 30 33 34 37
21 21 22 21 21 21 21 21 19 19 21 22 20 19 19 19 20 22 24 27 28 27 25 26 30 35 31 30 28 31 35 37 35 30 31 30 30 31
21 21 21 21 21 21 20 20 19 19 19 19 20 20 20 21 21 22 24 25 27 28 27 29 31 30 30 29 28 29 31 35 36 36 36 33 30 27
20 21 21 21 20 20 20 20 19 19 19 20 21 22 21 21 24 24 25 27 27 27 28 28 31 32 31 31 30 29 29 31 32 32 33 38 37 37

GFSNE_sfc_temp_051.txt.gz
Temp
59 59 58 53 50 48 46 46 47 41 39 41 39 44 45 45 46 45 43 44 47 48 49 50 50 50 50 50 50 51 51 52 52 53 54 55 56 57
55 55 51 47 45 44 42 42 42 41 37 36 35 37 40 41 41 41 40 42 44 47 48 49 49 48 48 49 49 49 50 51 51 52 53 54 55 56
50 48 43 42 40 40 39 41 39 39 38 34 35 35 35 36 37 37 38 39 42 47 48 48 48 48 48 48 48 48 49 49 50 51 52 53 54 54
43 42 40 41 38 39 39 37 37 38 36 34 33 32 33 34 34 35 39 44 44 47 48 47 47 46 47 47 47 47 47 48 48 49 50 51 52 52
41 40 40 39 37 37 37 35 35 35 34 34 33 34 34 34 36 40 41 42 45 46 47 48 47 47 46 46 46 46 46 47 47 47 47 48 49 50
40 40 40 39 37 34 34 33 34 33 34 34 34 34 36 38 38 36 37 41 40 45 45 45 46 46 46 46 46 46 45 45 45 45 46 46 46 47
36 36 36 38 39 38 36 35 35 35 34 33 35 36 36 37 36 38 36 37 38 39 38 39 39 40 41 44 45 46 46 46 45 45 46 46 46 47
33 33 34 36 38 39 39 38 38 37 35 35 35 35 36 36 37 35 33 31 29 38 35 36 39 38 39 41 45 45 45 45 45 45 45 45 45 46
33 33 34 37 37 37 37 38 39 40 40 38 35 36 35 36 32 30 31 31 31 35 35 32 37 36 39 43 45 45 44 44 44 44 44 44 44 45
35 36 37 37 38 39 38 36 36 37 38 40 37 37 37 38 36 34 32 33 35 36 37 29 35 34 38 39 43 43 43 43 43 43 43 43 43 44
38 39 39 38 37 38 37 35 35 36 42 40 40 40 39 40 39 34 30 29 28 31 35 31 31 32 33 34 36 41 43 43 43 43 43 42 42 43
38 38 37 37 38 39 37 36 33 34 35 35 35 37 38 37 40 35 31 26 28 26 32 27 28 29 25 30 31 34 35 39 41 42 42 42 42 39
35 35 36 37 37 37 37 34 34 35 35 34 33 33 34 34 34 34 34 28 28 26 32 31 25 27 27 27 29 31 32 33 34 36 39 40 40 39
35 36 36 35 35 35 34 36 35 35 33 32 31 30 30 30 33 34 33 33 33 30 31 30 26 26 24 23 23 28 30 31 31 30 31 36 38 39
35 34 34 34 34 34 34 33 33 31 31 29 29 29 32 32 31 30 31 31 31 31 31 29 28 27 25 23 23 25 26 27 29 28 29 31 31 33
35 34 34 33 33 32 31 32 32 31 30 29 28 29 29 30 29 31 29 29 28 28 30 31 31 29 26 26 26 25 27 24 28 28 29 31 33 34
32 32 31 31 30 31 31 31 31 31 29 29 28 28 28 28 28 30 28 27 25 26 28 31 33 33 31 28 26 28 28 28 29 29 30 29 31 32
30 30 29 29 28 29 29 29 29 30 29 29 27 26 25 25 25 26 26 25 25 27 27 29 29 28 29 31 34 28 29 29 31 32 32 29 30 34
28 28 27 27 27 27 27 28 27 28 28 25 25 25 25 24 24 24 24 25 25 26 28 30 28 27 24 23 31 39 30 30 30 30 31 30 29 32
27 26 26 27 27 27 28 27 26 27 26 26 25 25 25 24 24 23 24 23 24 26 26 29 29 29 26 26 27 31 36 30 28 28 29 32 34 38
27 26 27 26 27 27 27 27 26 25 25 25 25 24 24 24 24 24 24 27 27 26 24 26 29 36 32 31 27 28 32 36 35 31 31 30 29 31
27 26 26 26 26 26 27 26 25 25 24 25 25 25 25 25 24 24 24 23 24 25 25 27 30 30 29 27 27 28 30 33 37 38 38 37 30 26
26 26 25 25 25 25 25 25 25 25 25 25 25 25 25 24 25 25 25 25 25 25 26 26 29 30 29 29 30 30 30 31 32 32 33 39 39 37

GFSNE_sfc_temp_054.txt.gz
Temp
58 57 56 52 49 48 48 48 48 40 38 35 36 41 41 41 44 41 42 45 48 48 49 50 50 50 51 51 51 52 52 52 53 53 54 55 55 56
55 54 51 47 45 46 45 43 44 42 36 36 35 36 38 40 42 40 41 42 44 46 48 48 49 50 50 50 50 50 50 51 52 52 53 54 55 55
50 48 44 44 41 41 41 41 40 40 37 34 35 35 34 36 38 38 38 38 39 44 46 48 49 49 49 49 49 49 49 50 50 51 52 53 53 54
42 41 40 41 39 40 40 39 38 38 37 34 33 33 33 34 35 35 38 41 41 45 47 49 48 48 48 48 48 48 48 48 49 49 50 51 51 52
41 41 39 39 38 38 37 36 35 36 35 35 32 34 34 34 34 35 36 38 42 45 47 48 48 48 48 48 47 47 47 47 47 47 48 48 49 50
40 40 39 38 37 35 34 34 35 34 34 34 34 34 34 34 32 32 33 36 35 42 43 44 46 46 47 47 47 46 46 46 47 47 47 47 47 48
37 37 36 39 40 38 36 35 35 34 33 32 31 31 33 34 32 33 31 32 31 33 32 31 33 33 35 42 43 45 45 46 47 47 47 47 47 47
33 34 35 38 41 41 40 39 37 34 33 33 31 30 30 31 32 30 26 26 23 32 29 30 32 32 33 34 42 45 46 46 46 46 46 46 46 46
33 33 34 36 36 36 39 39 40 41 40 34 30 30 30 32 28 26 27 24 24 29 29 28 30 31 32 39 43 44 45 45 45 45 45 45 45 46
33 35 35 36 36 37 34 33 32 33 35 37 32 32 32 32 31 27 25 26 28 30 30 23 28 29 33 31 41 42 42 43 44 44 44 44 44 44
34 35 35 33 39 39 34 31 31 31 40 40 40 40 40 40 38 29 22 20 21 25 29 25 26 25 29 31 32 39 42 42 42 42 43 43 44 44
31 32 38 35 39 39 31 28 27 27 29 30 30 32 34 33 40 31 24 15 16 22 26 20 21 22 21 25 26 29 30 36 39 40 40 41 42 39
30 29 30 37 37 37 37 28 29 31 31 27 27 27 28 28 29 29 29 19 15 27 30 29 15 22 26 26 24 25 29 28 30 32 36 37 38 38
29 27 28 36 36 36 33 35 35 34 26 26 26 24 24 24 25 30 31 29 30 29 26 29 26 25 24 23 24 25 26 28 28 27 28 32 36 38
30 33 35 36 35 31 35 35 34 25 26 23 22 21 25 30 31 30 31 30 30 30 31 31 28 28 26 24 24 26 28 29 29 26 24 27 27 29
31 26 33 35 35 33 31 29 28 26 25 21 21 22 21 23 28 29 27 28 26 27 31 31 29 28 26 27 26 26 28 25 29 29 29 29 30 30
30 26 26 26 25 26 26 27 27 27 23 22 20 26 27 27 27 27 26 26 24 25 26 30 31 32 31 29 26 27 28 28 29 29 29 28 30 30
26 24 22 22 22 24 25 25 25 26 27 27 26 25 24 24 24 25 25 24 23 24 25 27 28 28 28 29 33 27 28 28 29 29 29 28 29 32
23 20 20 20 21 21 20 20 26 28 27 26 25 24 24 24 25 23 23 23 23 24 25 27 27 25 23 23 30 38 29 29 30 29 29 28 27 30
21 19 18 20 20 19 20 26 26 26 25 25 24 24 23 23 23 22 23 22 22 23 24 26 26 26 24 24 25 30 36 29 28 27 27 30 31 37
20 20 20 19 19 17 22 26 25 24 25 24 24 24 24 23 22 22 22 27 27 24 22 23 26 33 30 29 25 27 31 36 34 29 30 29 29 30
21 20 20 19 17 13 15 22 24 24 24 24 23 24 24 23 22 22 23 22 22 23 23 25 28 28 26 25 25 26 28 32 36 37 38 36 30 27
19 20 18 17 14 14 13 15 17 20 20 22 23 23 23 22 23 23 23 23 23 23 23 23 26 27 26 26 27 27 29 30 31 31 32 38 38 38

GFSNE_sfc_temp_057.txt.gz
Temp
58 58 58 55 54 54 52 51 52 46 39 38 38 40 40 43 45 42 42 48 48 47 48 48 49 50 51 52 52 53 53 52 53 53 54 55 55 56
55 55 52 48 48 47 46 45 45 48 43 37 37 37 40 41 43 40 40 44 46 47 48 48 49 50 50 50 51 52 51 51 52 52 53 54 55 55
48 47 43 44 42 43 43 42 41 42 39 35 36 36 36 37 39 38 40 39 40 45 47 48 49 49 50 50 50 50 50 50 51 51 52 53 53 54
43 42 41 42 40 41 41 40 40 39 38 34 33 32 33 35 36 36 39 42 41 43 46 46 49 49 49 49 49 49 49 49 49 49 50 51 52 52
41 41 41 41 39 38 38 36 36 37 36 35 32 34 34 35 34 36 36 37 41 44 46 48 49 48 48 48 48 48 48 48 48 48 48 49 49 50
39 39 39 38 37 35 35 34 35 35 35 35 34 33 34 35 35 34 33 37 36 41 43 44 45 45 46 46 46 46 45 46 47 47 48 48 48 48
36 38 38 40 41 39 37 35 35 34 34 33 33 33 33 33 32 33 31 30 30 31 31 31 32 32 34 40 41 43 44 45 46 47 47 48 48 48
33 34 36 37 39 42 42 40 38 34 33 33 32 32 32 30 30 30 26 26 23 29 28 28 30 30 31 32 41 43 45 45 46 46 46 47 47 47
33 33 34 36 35 36 40 40 40 41 40 33 30 29 28 30 26 25 27 24 24 28 28 26 29 29 30 36 41 43 44 44 44 44 45 45 45 46
30 32 32 32 36 36 34 33 32 33 34 36 30 29 30 30 30 26 23 24 27 28 28 19 26 27 29 29 39 41 42 43 44 43 43 43 44 45
31 32 31 30 39 40 31 28 29 29 39 40 40 41 41 41 38 27 21 18 20 24 28 24 24 24 26 27 29 39 41 41 41 41 41 42 42 43
28 30 38 35 39 39 29 27 25 26 28 29 28 30 32 31 39 30 24 13 14 16 25 19 20 21 19 24 25 29 28 35 37 38 38 38 39 37
29 28 29 37 37 37 37 27 28 30 30 25 25 25 26 27 28 28 28 17 10 15 28 27 23 26 26 25 23 23 25 27 28 30 34 36 36 37
28 27 28 36 37 36 34 35 36 34 26 25 25 23 23 23 24 26 30 30 29 28 27 28 25 25 24 23 24 25 25 28 26 27 25 31 35 37
30 33 36 36 35 32 33 35 34 25 25 22 21 20 20 20 21 21 30 30 30 30 31 30 28 27 26 24 24 25 26 27 28 27 22 24 25 27
32 26 32 34 35 32 30 29 27 26 24 21 20 21 20 21 27 28 26 27 26 27 30 30 29 28 26 26 26 25 27 25 27 28 28 28 28 29
30 26 25 25 24 25 25 26 26 26 22 21 18 21 27 26 26 26 25 25 23 23 24 28 30 30 30 28 26 26 26 26 28 28 27 27 29 30
27 23 21 20 21 23 24 24 24 24 26 27 26 25 23 24 24 25 24 23 22 23 23 25 26 26 27 29 32 27 28 28 28 28 27 26 28 31
23 19 18 19 19 20 19 17 21 27 26 25 25 24 24 24 24 23 22 22 22 22 22 23 22 23 21 20 27 37 27 27 28 28 29 28 27 29
19 18 18 19 19 18 17 15 24 25 25 25 24 24 23 23 22 22 20 20 21 21 21 21 21 22 22 22 23 27 34 27 26 25 26 29 31 35
19 19 19 18 17 16 16 15 15 21 25 24 23 23 23 23 22 21 21 26 26 23 21 21 23 31 28 27 23 24 28 35 33 28 28 27 27 29
20 19 19 18 16 12 11 11 12 15 18 23 20 19 22 23 22 21 22 21 21 22 21 23 24 23 23 22 21 24 27 29 33 36 36 35 29 26
18 19 17 16 12 11 9 10 11 14 16 17 18 19 19 19 21 22 22 23 22 21 22 22 23 25 24 24 25 24 25 26 28 28 31 37 37 37

GFSNE_sfc_temp_060.txt.gz
Temp
56 57 57 57 55 54 53 51 49 44 40 39 39 40 41 45 48 47 47 51 51 51 52 52 51 51 50 50 52 53 54 54 54 54 55 55 56 56
52 53 50 48 47 46 45 46 46 45 43 39 37 38 40 43 46 42 43 48 50 50 50 49 49 49 50 51 52 52 52 53 53 54 54 54 55 56
46 45 43 44 43 43 43 43 43 43 41 37 37 37 37 38 40 39 41 40 41 47 49 49 49 49 50 50 50 51 51 52 52 52 53 53 54 54
42 42 41 43 41 41 41 40 40 39 38 36 34 33 34 36 37 37 39 41 40 43 45 46 47 48 49 49 50 50 50 50 50 50 51 51 52 52
40 40 40 40 38 38 37 37 36 38 36 35 33 34 34 35 35 36 37 37 41 42 43 44 46 48 49 49 49 49 48 49 49 49 49 49 50 51
39 39 39 38 37 35 35 35 36 36 36 35 34 34 34 35 35 34 33 36 35 41 43 44 45 45 46 46 46 46 46 46 46 47 48 48 48 49
36 37 39 41 43 40 37 36 36 35 34 34 33 33 33 32 32 33 33 31 30 30 30 31 31 31 33 39 41 43 44 44 45 46 47 48 48 49
33 34 36 37 37 43 43 42 38 34 34 33 32 32 30 28 28 28 24 23 21 28 27 28 29 28 29 30 39 42 44 45 46 46 46 47 47 47
30 29 32 36 36 35 39 39 39 41 40 32 29 28 27 29 23 23 26 22 22 27 27 24 27 27 29 34 40 42 43 44 44 44 45 45 45 46
26 29 28 29 32 32 30 29 29 30 31 34 29 28 29 29 29 26 23 24 26 27 26 18 25 26 28 28 38 40 42 43 43 43 43 43 43 44
29 29 30 29 39 38 30 28 27 28 37 39 38 40 40 40 35 26 21 17 19 24 26 23 23 23 25 26 29 38 40 40 41 40 40 41 41 41
28 29 37 35 39 38 29 26 25 26 27 28 27 29 30 30 37 29 23 12 13 15 25 18 19 20 18 24 24 28 28 35 38 38 39 39 39 34
29 27 29 37 38 38 37 27 28 29 29 25 25 25 26 26 27 27 27 15 8 13 26 26 23 26 25 21 23 23 23 27 28 31 35 37 38 36
28 27 27 36 37 37 33 36 36 32 25 25 24 22 22 22 23 29 30 27 29 27 30 28 25 25 24 24 24 23 22 24 25 26 25 31 36 38
30 33 35 36 36 32 34 36 33 25 25 21 20 19 19 17 18 19 24 30 29 30 31 30 28 27 26 24 24 26 26 20 24 25 24 24 25 26
32 26 32 33 33 32 29 28 27 25 23 20 19 20 19 20 27 27 25 25 24 18 24 29 29 28 26 26 26 25 25 24 20 23 23 26 27 28
31 26 24 24 23 24 25 25 25 25 21 20 18 21 27 26 25 26 25 24 21 15 17 19 25 27 28 27 25 26 26 26 27 26 25 25 29 30
27 23 20 20 20 22 22 23 23 24 24 26 26 25 24 24 24 25 25 22 20 19 18 15 14 17 22 25 31 26 27 28 29 28 26 25 27 31
23 18 18 18 19 19 18 16 14 21 25 24 24 24 24 24 24 21 20 18 20 19 20 18 10 16 17 16 24 35 25 26 25 25 27 27 26 28
19 17 17 18 18 17 15 12 13 17 20 23 24 24 23 23 22 21 19 16 18 19 19 19 16 19 19 18 20 25 33 26 25 25 25 27 29 34
19 18 19 18 17 15 15 12 8 10 13 14 15 20 22 18 20 22 22 25 25 23 20 20 22 30 25 25 21 22 27 33 31 26 26 26 26 28
19 18 19 18 16 12 10 8 7 9 10 12 14 12 14 16 19 19 20 19 20 21 21 22 24 23 20 20 19 20 23 27 32 34 35 33 27 23
18 18 17 15 13 10 7 7 8 10 10 11 13 15 15 16 18 19 20 21 21 21 21 21 23 24 23 22 23 23 23 24 25 25 27 35 35 36

GFSNE_sfc_temp_063.txt.gz
Temp
53 54 53 52 52 52 52 52 51 44 43 43 39 39 40 44 47 48 48 52 54 55 55 55 54 53 53 53 53 54 53 54 54 55 55 55 56 57
47 48 46 46 46 45 46 47 47 47 43 41 37 38 40 43 47 44 46 50 53 53 53 52 52 51 51 52 52 53 53 54 54 54 55 55 56 56
45 44 43 44 42 43 43 43 43 43 41 38 37 36 37 39 39 41 42 41 42 48 50 50 50 50 50 51 51 52 51 51 52 53 54 54 55 55
41 42 41 43 40 41 41 40 40 39 38 37 34 34 34 36 37 38 40 42 40 43 45 47 48 48 49 50 49 50 50 51 51 51 51 52 52 53
40 40 40 40 38 38 38 37 37 38 37 36 33 34 34 35 35 37 37 37 41 42 44 45 46 47 47 49 50 50 49 49 49 49 50 50 50 51
39 39 39 38 37 34 34 34 36 35 36 35 34 34 34 35 35 34 34 36 36 39 41 43 44 45 46 46 47 47 47 47 47 47 48 48 48 49
36 37 38 41 44 41 37 35 36 35 34 34 33 33 33 33 32 34 32 30 31 30 31 31 32 31 32 38 40 43 44 45 45 46 46 47 48 49
31 32 35 37 38 43 42 43 40 34 32 27 26 28 27 26 27 27 24 23 21 28 27 28 29 28 29 30 38 42 43 44 45 46 46 47 47 47
25 26 30 34 33 31 36 37 37 40 39 29 27 25 25 27 21 22 25 21 22 27 26 24 26 26 29 33 39 42 43 44 44 45 45 45 46 46
24 27 27 28 32 31 29 28 28 29 31 33 28 28 28 28 29 24 22 23 26 27 26 17 24 25 28 28 37 40 41 43 43 44 43 43 43 43
29 28 29 29 39 39 30 27 27 28 35 38 38 39 39 39 35 26 21 18 19 24 26 22 22 23 25 25 28 38 40 40 41 41 41 41 41 41
27 29 36 35 39 39 29 26 25 26 27 27 27 29 30 29 36 28 22 11 13 15 24 18 19 20 17 23 24 27 28 35 38 39 40 40 40 37
29 28 30 37 38 38 37 27 28 29 29 25 24 24 25 25 27 27 26 13 7 11 26 22 19 27 25 21 22 23 23 27 27 30 35 37 38 37
29 28 28 36 38 37 34 36 37 32 25 24 23 21 21 21 22 25 29 28 29 27 29 28 24 24 23 24 24 21 20 22 24 26 26 31 35 37
31 33 35 35 35 31 34 36 32 25 24 20 19 18 18 17 16 17 21 29 29 29 31 29 27 27 26 24 23 24 26 20 25 24 23 23 24 24
32 25 32 32 32 31 28 28 26 25 22 19 18 19 18 19 27 27 25 26 24 17 22 19 24 27 25 26 26 24 25 22 19 19 20 23 27 27
30 26 24 23 22 23 23 24 24 25 21 19 17 21 26 26 25 26 25 24 22 12 17 17 23 23 24 24 23 24 24 26 28 28 28 27 28 28
26 22 20 19 19 21 21 21 22 23 21 25 26 25 24 24 24 24 25 23 20 19 15 13 11 13 18 22 29 24 26 26 26 29 29 25 26 28
23 18 17 18 18 18 17 15 13 18 14 15 17 23 23 23 24 23 23 15 18 18 18 14 6 12 16 15 21 34 23 24 24 24 25 25 24 27
19 17 17 18 18 16 15 12 11 13 10 12 12 13 21 21 22 20 18 19 18 18 17 17 14 16 17 17 18 24 32 24 23 22 23 26 28 33
19 18 19 18 17 16 15 12 7 7 7 4 6 11 13 13 15 17 18 23 24 21 18 19 23 30 24 23 19 21 26 32 31 25 24 23 23 26
19 18 19 17 16 12 11 8 6 8 7 8 8 9 11 10 14 16 17 17 18 18 19 21 23 24 22 20 18 19 22 26 31 33 33 32 25 22
19 18 17 16 13 11 8 9 10 10 8 8 8 10 11 12 15 17 18 18 18 18 19 19 21 22 22 21 22 22 22 23 24 24 26 33 34 34

GFSNE_sfc_temp_066.txt.gz
Temp
50 51 52 50 49 49 50 51 50 46 44 41 40 38 39 42 45 45 46 51 55 57 57 57 56 57 57 56 56 55 54 54 54 55 56 56 56 56
48 47 46 46 45 43 45 46 46 46 44 41 39 39 40 43 45 44 45 48 51 54 55 55 52 52 52 52 52 53 54 54 55 56 55 55 55 56
45 44 43 44 42 43 43 44 43 43 41 39 37 37 37 39 39 41 42 42 42 48 50 50 51 50 50 51 51 51 52 51 52 53 53 55 55 55
38 39 40 43 40 41 41 40 40 39 39 38 34 34 34 36 38 38 40 42 41 44 46 47 47 48 49 49 50 50 50 51 51 52 52 52 53 54
40 40 39 39 36 38 37 37 37 36 37 36 34 35 34 36 36 37 38 38 41 43 44 45 47 48 48 49 49 50 50 50 50 50 50 51 51 52
39 40 40 38 36 35 33 31 33 32 36 35 34 34 35 35 35 35 34 36 36 40 41 42 43 44 45 46 47 47 47 47 48 48 48 48 48 49
36 37 38 41 44 42 36 33 32 31 31 33 33 33 32 32 32 33 32 32 33 32 33 33 32 32 33 38 39 42 44 45 46 47 47 47 48 48
28 29 33 36 37 42 41 41 39 30 28 24 21 26 25 25 26 26 22 22 21 27 27 28 30 30 30 30 38 41 43 44 45 45 46 47 48 48
22 24 30 33 32 30 35 37 36 39 38 28 26 25 25 26 21 21 24 21 21 26 26 23 26 26 29 32 39 41 43 44 44 45 45 46 46 47
23 27 27 29 32 31 29 28 28 29 31 32 28 27 27 28 28 24 21 23 25 27 26 16 24 25 27 28 36 39 41 43 43 44 45 44 44 44
29 28 29 29 39 39 30 27 27 28 35 37 37 38 38 38 36 26 21 18 19 23 25 22 21 22 25 25 28 37 41 40 41 41 42 42 42 42
27 29 36 35 39 39 28 27 25 25 26 27 27 28 29 29 35 28 21 11 12 15 23 17 19 20 17 23 24 27 28 35 38 38 40 40 40 35
30 28 30 37 38 38 37 27 28 29 28 25 24 24 25 25 26 26 25 13 6 10 25 25 20 27 25 21 22 23 23 27 28 30 36 37 38 37
28 28 28 37 37 37 33 37 37 30 25 24 23 20 21 20 21 22 25 24 27 26 29 27 24 22 23 24 24 22 20 23 22 26 24 31 35 37
30 33 35 35 34 30 34 35 32 24 24 20 19 18 18 16 16 17 23 28 29 29 30 28 27 26 25 22 22 23 26 20 25 23 22 23 23 24
32 25 31 32 32 30 28 27 26 25 22 19 18 18 17 17 27 27 24 24 23 15 20 14 13 19 24 24 24 24 25 23 17 17 22 26 28 28
28 25 24 23 22 23 23 23 23 24 20 18 16 19 26 26 26 25 25 24 22 20 15 16 21 20 20 20 20 22 23 23 24 25 26 26 29 31
26 23 20 19 19 21 21 21 21 22 20 19 18 21 24 24 23 24 24 23 22 18 18 12 8 12 15 21 27 21 22 22 25 24 24 24 26 29
23 19 18 17 18 18 17 15 13 17 11 9 10 12 13 14 23 22 23 22 19 15 17 11 4 10 14 14 21 34 22 24 22 23 24 24 23 26
20 18 18 18 18 17 15 12 11 11 9 8 6 5 8 11 16 16 13 11 17 17 17 12 10 14 15 16 17 22 32 24 23 22 22 24 26 32
19 18 19 18 17 16 15 12 8 7 6 2 2 2 7 3 13 12 15 22 23 19 17 18 20 28 24 23 16 20 25 31 30 24 23 22 23 25
21 19 19 18 16 13 11 8 5 7 6 6 6 6 7 6 9 12 15 15 17 17 17 19 20 19 20 19 18 19 21 25 30 32 33 31 24 20
19 19 17 16 13 11 7 7 7 8 8 7 6 7 7 9 14 16 17 18 18 17 17 17 19 20 19 19 21 21 21 22 24 23 25 32 33 34

GFSNE_sfc_temp_069.txt.gz
Temp
52 53 53 51 51 51 52 54 54 48 46 51 45 46 47 48 49 50 50 51 53 54 56 56 55 56 57 58 58 57 56 53 54 55 56 56 57 58
50 50 49 49 49 49 50 51 50 48 47 44 42 42 45 46 46 46 46 47 50 54 55 54 52 52 53 53 53 52 52 52 54 55 56 56 55 56
47 47 45 46 46 47 47 47 45 45 44 40 40 40 41 43 45 44 44 43 44 49 51 51 51 51 51 50 50 51 51 50 50 51 52 54 55 56
44 44 43 45 43 44 43 41 41 41 42 41 38 38 38 41 42 42 42 44 43 46 48 49 49 49 49 50 50 50 50 50 51 51 52 52 53 54
43 42 42 42 41 40 40 39 40 42 42 42 38 40 40 41 42 42 41 42 43 44 45 45 46 47 48 49 49 49 50 50 51 50 50 51 52 52
40 41 41 41 40 38 38 37 39 41 41 42 40 39 39 38 38 37 40 40 39 41 42 42 43 44 45 46 46 45 46 47 49 49 49 49 49 49
38 40 40 43 44 43 41 40 39 39 39 38 38 39 38 38 36 38 38 39 39 38 40 42 42 43 44 42 41 42 43 45 46 47 48 48 48 48
34 34 37 38 39 42 41 41 42 37 35 36 34 35 35 36 37 36 36 36 35 38 38 40 41 41 42 42 40 41 43 44 45 46 46 47 47 48
32 34 35 37 37 37 37 37 38 40 38 37 35 35 34 36 33 33 34 34 35 38 36 36 38 38 41 40 39 41 43 43 44 45 46 47 47 47
32 35 36 37 37 36 36 34 35 36 37 37 37 36 36 37 37 34 33 34 36 36 36 31 36 36 39 39 37 39 41 43 44 44 45 46 46 45
35 36 37 37 40 38 35 32 33 34 36 37 37 37 38 37 38 36 33 32 31 33 34 32 33 32 35 36 38 38 40 41 42 43 43 44 43 43
35 35 37 39 39 39 35 33 32 33 33 33 35 34 34 34 35 35 33 29 29 30 33 30 31 31 29 35 36 38 39 37 38 39 39 41 41 42
34 34 35 37 38 39 36 35 34 35 33 32 32 33 33 34 34 34 33 30 28 28 34 32 29 31 30 30 33 35 36 37 38 38 38 38 39 39
33 34 34 37 37 37 36 37 36 33 32 31 31 30 30 31 31 31 31 32 31 30 33 31 28 28 27 27 28 34 34 35 35 34 35 35 36 37
35 35 35 35 34 33 34 34 32 31 30 29 29 28 29 29 27 29 31 32 31 32 32 31 30 29 28 26 26 28 29 32 33 32 33 33 33 34
35 33 34 33 32 32 31 30 31 31 30 29 29 29 29 28 29 30 28 28 27 28 30 28 26 25 26 27 27 26 29 26 32 32 32 32 34 35
32 31 30 29 29 28 28 29 29 29 28 28 27 28 29 29 29 30 28 27 25 25 27 28 29 28 27 25 24 27 28 29 31 30 29 29 32 34
31 29 28 27 27 27 26 27 27 27 28 27 27 27 27 26 26 27 27 26 24 25 25 25 24 24 26 29 29 27 29 28 30 30 29 26 27 32
30 29 27 26 26 26 25 25 24 26 22 23 23 24 24 24 25 25 25 25 24 25 24 25 22 20 19 19 30 33 27 29 29 29 30 29 28 30
28 27 26 26 26 25 25 24 24 24 22 22 21 21 20 20 21 22 23 21 22 22 22 24 22 21 19 21 23 28 32 29 29 28 28 31 32 33
27 26 26 25 25 25 24 23 22 21 20 19 19 18 19 19 19 20 20 23 24 24 22 23 26 29 25 25 21 24 29 32 31 28 28 26 25 27
27 26 26 25 24 24 23 22 20 20 19 19 18 18 18 17 16 17 19 19 20 21 22 24 25 24 22 21 20 23 26 30 32 32 33 32 27 23
27 26 25 24 24 23 21 20 18 19 18 17 17 17 16 15 18 19 20 21 21 21 21 21 23 24 21 21 22 22 23 25 28 28 30 33 33 33

GFSNE_sfc_temp_072.txt.gz
Temp
54 55 53 53 54 56 56 57 55 51 55 55 52 51 51 53 49 52 51 50 53 55 56 55 55 56 57 59 59 59 57 56 56 55 55 55 56 58
54 55 55 56 55 55 55 54 53 51 50 50 46 46 47 51 49 50 49 47 49 52 54 53 53 53 54 55 55 55 55 54 54 54 54 55 55 55
53 52 51 53 52 52 52 52 51 49 47 43 44 44 45 49 49 50 48 47 48 50 51 51 52 52 52 52 52 52 52 53 53 53 53 53 54 54
51 51 49 50 48 49 49 47 45 45 45 45 42 42 41 46 47 47 48 49 48 47 48 49 50 50 50 51 50 50 50 51 51 51 51 53 53 53
49 48 47 47 45 46 46 46 46 48 48 47 43 45 44 45 45 47 46 47 48 45 46 46 47 48 49 49 49 50 50 50 50 51 51 51 52 52
45 45 45 44 44 43 43 43 45 47 48 47 44 41 42 43 42 43 47 49 46 48 46 44 44 44 45 45 45 45 46 47 49 49 50 50 49 49
43 44 43 44 43 44 46 44 45 45 45 44 44 44 44 44 41 44 43 44 47 45 46 48 47 48 48 46 44 43 43 45 46 47 48 48 48 48
39 40 42 42 42 42 41 41 42 42 40 40 41 41 41 42 43 40 39 39 38 45 42 44 46 45 47 47 43 42 43 44 45 46 47 47 48 48
37 39 40 42 42 42 40 39 40 40 39 42 41 40 39 39 36 35 37 37 38 42 40 40 44 43 46 45 41 40 42 43 44 45 46 46 46 47
38 41 42 42 42 41 41 39 40 40 40 41 41 41 41 41 40 38 37 38 40 41 40 34 42 40 43 45 40 39 40 42 43 44 45 46 46 46
40 42 42 42 40 38 39 36 39 39 38 37 37 37 37 37 39 40 36 34 35 38 39 35 38 36 39 40 42 39 40 40 41 43 44 45 45 44
41 41 37 40 39 39 39 39 37 38 38 38 40 39 38 38 36 39 37 31 32 33 36 32 33 34 32 40 39 41 42 40 39 40 40 41 42 42
39 40 40 37 39 39 37 39 38 39 37 37 38 39 38 38 39 38 37 33 31 31 36 33 30 31 31 32 36 39 39 40 41 41 40 40 40 40
38 40 40 37 37 37 38 37 37 35 38 36 35 35 35 35 35 35 34 34 35 32 34 32 29 29 28 27 29 37 38 38 37 37 38 39 39 39
39 38 36 36 35 35 35 35 33 36 35 33 33 33 33 33 31 32 33 33 32 32 33 32 31 30 28 26 27 29 30 35 35 33 34 36 37 38
36 37 37 35 34 34 34 34 35 36 34 34 33 34 34 32 32 32 30 30 28 30 33 32 31 30 28 29 29 28 31 28 35 35 35 35 36 37
37 37 35 35 34 34 34 34 34 34 32 33 32 32 32 32 32 32 30 29 27 27 29 31 32 31 30 28 26 30 31 32 34 34 32 31 34 36
36 34 34 34 33 34 33 33 33 32 32 32 31 31 30 30 30 30 30 28 27 29 29 30 30 28 29 32 31 28 31 32 34 33 32 28 29 34
35 35 33 34 33 33 32 31 30 32 30 28 29 28 28 28 28 28 28 28 27 28 29 30 28 25 21 22 33 34 29 31 32 32 33 32 30 33
35 34 33 33 33 32 32 31 30 30 29 28 28 27 26 26 25 26 27 26 26 27 26 28 27 25 22 23 25 31 34 30 30 29 31 33 35 36
35 33 33 33 32 32 31 30 30 29 28 27 26 25 25 25 24 25 25 26 26 26 25 26 30 33 29 28 23 26 32 34 32 29 29 28 27 29
35 34 34 33 32 31 30 30 29 28 27 27 26 26 26 25 24 23 24 24 25 26 26 28 29 28 25 22 22 24 27 32 35 35 34 32 27 25
34 34 33 32 32 30 29 29 27 27 27 26 25 25 24 23 24 24 24 25 25 24 25 25 27 28 25 24 24 23 24 26 30 30 32 36 35 34